Wind_Speed
24 22 22 22 21 21 23 25 25 25 24 25 25 23 21 21 22 22 22 23 24 23 21 18 16 15 16 16 17 18 19 19 19 19 18 18 18 18 19 19 19 18
26 23 21 22 22 22 24 25 25 26 25 25 25 24 22 23 23 23 23 24 25 24 21 18 17 16 16 16 17 18 19 19 20 20 19 19 19 19 19 19 18 18
31 26 22 21 23 24 25 25 25 26 26 25 24 24 24 24 25 24 24 25 25 25 21 19 18 17 16 17 17 18 19 20 20 20 20 19 19 19 20 19 19 19
33 31 25 22 24 26 26 25 26 27 27 25 24 25 26 27 27 25 24 24 25 24 22 20 18 18 18 18 18 19 20 20 21 20 20 19 19 20 20 20 19 19
34 33 30 27 26 26 25 25 27 28 28 26 26 26 27 28 28 26 25 25 25 24 23 22 20 19 19 19 19 20 20 21 21 21 20 19 20 20 20 20 19 19
34 33 33 32 29 25 24 26 28 30 29 27 27 28 28 28 27 26 26 26 26 25 24 24 22 21 21 20 21 21 21 22 22 21 20 20 20 20 20 20 19 19
35 34 34 35 33 28 25 27 30 32 32 29 29 30 30 29 28 28 28 27 27 27 26 25 24 23 23 23 22 21 22 23 23 22 21 20 20 21 21 21 20 20
35 35 35 36 36 32 28 28 31 33 33 32 31 31 32 31 29 29 30 29 29 29 29 27 25 25 25 24 23 23 23 24 24 23 22 22 22 22 22 22 22 21
35 36 37 36 37 36 33 31 32 34 35 34 32 32 32 32 31 31 31 30 30 30 30 30 28 26 26 26 25 25 25 25 25 25 24 24 23 23 23 24 23 22
34 36 38 37 37 37 36 34 34 35 35 35 34 34 34 33 33 33 32 31 32 32 32 31 30 28 27 27 27 27 27 26 26 27 26 25 23 23 24 25 25 25
34 36 38 39 38 38 37 36 36 35 36 36 35 35 35 35 35 34 32 32 32 33 33 33 32 30 29 29 30 30 28 27 28 29 26 24 23 24 25 26 27 27
35 35 37 39 39 39 38 37 37 36 36 37 37 37 37 37 35 32 32 33 33 33 35 34 34 33 32 32 32 31 29 28 29 28 25 25 26 27 27 28 28 28
36 36 36 38 40 40 39 38 38 37 37 38 39 39 39 37 35 33 34 36 34 34 35 36 37 36 36 35 34 32 31 30 29 28 27 27 28 28 28 29 29 29
36 36 35 36 39 41 41 39 38 38 38 38 40 41 40 39 37 36 38 38 37 36 37 38 39 39 39 38 37 35 35 33 31 30 30 30 29 29 30 30 31 31
36 35 35 35 37 41 42 41 39 38 38 38 40 42 41 40 40 39 40 40 39 38 38 39 41 41 39 38 39 38 38 38 37 34 33 32 30 30 31 32 32 32
36 35 35 34 35 39 42 42 41 40 39 39 42 43 42 42 42 40 40 40 39 37 36 38 43 43 37 36 39 40 39 39 39 37 36 35 33 32 32 33 33 34
36 35 36 35 35 38 41 43 43 41 40 40 42 42 42 43 42 41 41 40 38 37 37 39 43 41 35 34 37 38 38 39 38 38 37 37 36 34 34 35 35 34
35 35 36 35 35 37 40 43 44 42 41 41 41 40 41 42 42 41 42 40 39 38 38 38 39 37 32 33 35 36 37 38 38 38 38 37 37 37 37 37 35 35
34 35 35 35 35 36 38 42 43 42 42 43 42 40 40 42 42 43 42 40 39 39 37 37 37 35 31 33 35 35 36 37 37 38 38 38 39 39 38 37 36 36
33 34 34 33 34 35 36 39 40 42 43 43 42 41 40 41 42 42 42 41 39 39 38 36 36 35 33 34 36 36 37 36 35 37 38 38 39 40 38 37 36 36
32 32 32 31 32 34 36 38 39 40 41 41 41 40 40 41 42 41 42 42 40 39 38 35 35 37 35 34 36 37 38 38 36 35 36 38 39 39 37 36 36 36
31 31 30 29 29 31 35 37 38 38 39 40 41 41 41 41 41 40 41 42 41 39 37 35 36 37 36 35 37 38 39 39 38 36 35 37 38 38 36 35 35 36
31 29 29 27 27 28 31 34 36 36 37 39 41 42 42 41 40 40 41 41 40 39 37 36 36 37 36 36 37 38 39 40 38 36 35 36 37 37 36 36 36 37
30 28 27 26 26 25 27 31 34 35 35 38 41 42 41 40 40 40 41 41 39 38 38 36 36 36 35 37 38 38 39 40 39 37 36 36 36 36 36 37 37 36
28 27 25 25 25 25 25 28 31 33 35 37 40 41 40 41 41 40 40 40 39 39 38 37 36 35 35 37 39 39 38 38 37 35 35 35 34 35 37 37 37 35
25 26 25 24 23 24 25 27 29 32 35 36 37 39 39 40 40 40 40 40 39 39 39 38 36 35 35 37 39 40 40 39 35 34 35 35 34 35 38 38 38 37
Wind_Direction
279 271 265 260 257 259 257 255 256 252 247 248 248 244 244 241 239 239 241 242 242 241 239 237 241 246 246 246 245 245 244 241 240 238 237 238 241 244 246 247 250 252
285 275 266 261 258 256 255 253 253 251 248 248 245 242 245 245 240 236 237 238 239 240 237 232 235 241 244 246 246 245 244 241 240 239 238 238 240 242 245 246 248 251
290 282 269 261 257 253 252 253 253 251 250 249 246 244 245 245 243 240 237 236 237 239 238 232 230 235 240 243 244 244 244 242 239 238 238 238 239 241 244 246 248 249
289 287 279 264 253 250 249 252 252 250 249 249 247 245 243 242 242 242 240 237 237 239 240 237 233 235 238 240 241 242 243 243 241 240 238 238 239 240 242 245 247 249
284 284 283 273 258 250 249 250 249 249 249 247 244 243 242 240 239 241 240 239 239 239 239 239 240 242 240 239 240 242 243 244 244 244 241 241 243 244 245 246 247 249
282 279 279 276 268 256 249 249 248 248 249 247 243 241 240 240 239 239 238 238 239 238 237 237 240 242 240 239 240 242 244 245 245 246 246 246 247 248 250 250 250 251
280 276 272 273 272 264 251 246 246 247 247 245 242 240 240 241 241 239 237 236 237 237 236 235 236 238 238 238 239 241 244 247 248 247 247 248 250 251 253 253 253 253
275 274 269 266 268 267 258 248 244 244 246 244 242 242 242 242 243 242 239 235 234 237 237 235 234 235 237 237 238 239 242 247 250 250 250 250 251 253 255 257 257 256
272 269 267 263 261 263 261 253 245 244 244 243 241 242 242 242 242 243 242 237 234 236 237 238 237 235 235 237 237 238 239 243 248 250 250 250 252 254 257 261 262 261
275 267 264 261 257 257 259 257 251 247 245 244 241 239 240 240 239 240 241 240 237 235 236 238 239 238 236 236 236 237 238 240 244 246 248 250 253 257 259 262 264 265
282 270 263 260 256 254 254 257 255 251 248 247 244 240 239 239 239 238 240 241 239 237 235 236 237 237 237 237 236 236 238 240 243 245 247 248 251 255 257 259 261 263
288 276 266 259 256 252 250 252 255 253 250 247 243 241 240 240 240 239 240 240 239 237 235 235 234 235 236 238 238 238 239 241 243 245 246 244 246 250 251 253 255 257
291 283 272 261 255 252 248 248 251 253 251 247 242 241 240 240 241 239 237 237 238 237 235 235 234 233 235 237 238 238 238 240 243 245 244 242 242 245 248 249 248 250
292 285 278 266 255 251 248 246 247 250 250 247 243 240 239 238 238 238 236 234 234 236 235 235 234 233 235 237 238 237 237 239 242 243 244 243 242 245 248 249 248 250
291 284 279 271 259 251 248 245 245 247 248 246 243 240 239 238 237 238 239 238 238 240 239 239 238 236 236 237 238 237 237 239 241 242 244 244 242 244 248 251 251 251
290 282 278 273 263 253 248 245 243 244 246 245 243 239 238 237 236 237 240 241 244 246 245 244 244 244 241 239 239 238 237 239 240 241 242 243 242 242 247 252 251 250
286 281 277 273 264 255 249 245 243 242 242 243 242 239 237 236 236 236 237 239 242 246 246 246 249 254 252 244 242 242 241 241 242 242 242 243 243 243 245 250 252 253
282 277 275 271 263 255 249 246 243 241 241 242 242 240 237 236 235 234 235 237 239 241 242 243 250 260 259 248 246 248 247 247 247 246 246 245 246 245 245 248 252 255
279 276 274 271 263 255 250 247 245 243 242 242 241 239 236 235 235 234 233 234 236 239 240 240 245 254 253 246 246 249 250 251 251 251 251 250 249 249 249 249 250 253
281 278 275 270 263 256 252 249 248 246 244 243 240 237 234 233 235 235 232 230 232 238 241 240 243 248 248 244 245 247 248 250 251 252 253 253 252 253 253 254 254 254
281 277 272 267 262 257 252 249 247 247 247 246 242 238 233 232 234 235 233 229 229 234 238 238 241 246 246 245 247 248 247 248 249 251 254 255 255 256 258 258 258 259
281 274 268 267 264 258 252 249 247 246 246 247 245 241 236 232 231 233 234 232 230 230 232 233 238 243 245 246 248 249 248 248 248 251 254 257 259 260 260 259 259 260
283 274 266 265 264 258 251 247 246 244 244 245 245 242 239 235 231 231 233 234 232 229 227 229 234 239 243 245 246 247 249 250 250 251 255 259 261 261 260 259 259 259
284 275 265 261 260 256 250 245 244 243 242 243 244 243 240 237 234 232 230 231 233 231 227 227 230 235 239 243 245 246 248 250 250 251 254 257 259 261 262 262 260 259
283 275 267 262 260 258 253 246 243 242 242 242 243 242 240 238 237 235 230 228 231 232 230 229 229 231 235 240 244 245 246 248 249 249 251 254 256 260 263 262 260 260
282 276 271 266 261 258 255 249 243 241 242 243 243 241 240 239 239 236 231 228 228 230 233 233 231 231 233 237 242 245 246 248 248 246 248 252 256 258 260 259 258 257
Height
5871 5873 5875 5875 5876 5875 5874 5873 5872 5871 5873 5876 5878 5878 5877 5878 5879 5880 5881 5882 5883 5885 5885 5885 5885 5885 5885 5886 5887 5889 5890 5890 5891 5891 5891 5892 5892 5893 5894 5894 5895 5896
5867 5869 5871 5872 5872 5871 5870 5869 5869 5870 5872 5873 5874 5874 5874 5876 5878 5879 5880 5881 5882 5882 5882 5881 5882 5882 5882 5883 5885 5886 5887 5888 5889 5888 5889 5889 5890 5891 5891 5892 5893 5894
5862 5864 5866 5868 5867 5866 5865 5866 5867 5868 5868 5869 5869 5869 5871 5873 5874 5876 5877 5878 5879 5878 5877 5877 5878 5878 5879 5881 5882 5884 5885 5886 5886 5886 5887 5887 5887 5888 5888 5889 5890 5891
5857 5858 5861 5862 5861 5860 5862 5863 5864 5864 5864 5865 5866 5866 5868 5869 5870 5871 5872 5874 5875 5875 5874 5874 5875 5875 5876 5878 5880 5881 5883 5883 5884 5884 5885 5885 5885 5885 5886 5887 5888 5889
5853 5854 5855 5855 5855 5856 5858 5859 5859 5859 5861 5862 5863 5864 5865 5865 5866 5866 5868 5870 5871 5871 5872 5872 5872 5873 5874 5875 5877 5879 5880 5881 5882 5882 5882 5883 5883 5883 5883 5884 5885 5886
5849 5849 5849 5848 5849 5852 5854 5854 5854 5854 5856 5858 5859 5859 5860 5861 5861 5861 5863 5865 5867 5868 5869 5869 5870 5871 5872 5873 5875 5876 5878 5878 5879 5880 5880 5881 5881 5881 5882 5882 5883 5883
5844 5845 5844 5843 5844 5847 5849 5849 5849 5850 5851 5854 5854 5855 5856 5857 5857 5858 5859 5861 5862 5864 5865 5866 5867 5868 5869 5871 5872 5874 5875 5875 5876 5877 5878 5878 5879 5879 5879 5880 5880 5881
5840 5839 5839 5838 5839 5841 5843 5844 5844 5845 5846 5848 5849 5850 5851 5852 5853 5854 5854 5856 5858 5860 5862 5862 5863 5864 5865 5867 5869 5870 5871 5872 5873 5874 5875 5876 5876 5876 5877 5877 5878 5878
5834 5834 5833 5833 5834 5835 5837 5838 5838 5839 5839 5841 5844 5845 5845 5847 5848 5849 5850 5852 5854 5857 5858 5858 5859 5860 5862 5863 5865 5865 5866 5868 5869 5871 5871 5872 5873 5874 5874 5875 5876 5876
5829 5828 5827 5827 5828 5829 5831 5832 5833 5833 5833 5835 5837 5839 5841 5842 5843 5844 5845 5847 5850 5852 5854 5854 5855 5856 5858 5860 5861 5861 5862 5864 5865 5865 5866 5868 5870 5871 5871 5872 5873 5874
5823 5822 5821 5822 5822 5824 5826 5826 5827 5828 5829 5831 5832 5834 5836 5837 5838 5841 5842 5843 5846 5848 5849 5850 5851 5852 5853 5855 5857 5858 5859 5860 5860 5860 5862 5865 5867 5867 5867 5868 5869 5870
5816 5816 5815 5816 5817 5818 5820 5821 5822 5823 5824 5825 5827 5828 5830 5831 5833 5838 5840 5841 5841 5843 5844 5846 5846 5846 5848 5849 5852 5854 5855 5855 5855 5855 5858 5861 5862 5861 5862 5862 5863 5865
5810 5809 5810 5810 5811 5812 5813 5815 5817 5818 5819 5819 5821 5823 5824 5826 5828 5832 5834 5835 5836 5838 5839 5840 5840 5841 5841 5843 5846 5850 5851 5851 5851 5852 5853 5854 5855 5856 5857 5858 5859 5860
5804 5803 5803 5804 5804 5805 5807 5809 5811 5812 5813 5814 5815 5816 5819 5820 5822 5824 5826 5827 5829 5831 5832 5833 5834 5835 5837 5838 5840 5843 5845 5846 5847 5847 5847 5848 5850 5851 5852 5853 5854 5854
5798 5797 5797 5798 5798 5798 5800 5802 5804 5806 5807 5808 5808 5810 5812 5815 5816 5818 5820 5821 5822 5825 5828 5829 5828 5829 5832 5834 5835 5836 5838 5840 5841 5842 5842 5843 5846 5847 5847 5848 5849 5849
5792 5791 5790 5791 5792 5792 5793 5795 5798 5799 5800 5802 5803 5804 5807 5808 5810 5812 5814 5817 5819 5822 5825 5825 5824 5824 5827 5829 5830 5832 5833 5834 5835 5837 5837 5838 5841 5843 5843 5843 5844 5845
5785 5784 5783 5783 5785 5786 5786 5788 5790 5792 5793 5793 5795 5798 5800 5802 5805 5807 5808 5811 5815 5818 5819 5820 5821 5823 5825 5827 5828 5829 5830 5831 5831 5832 5833 5834 5836 5838 5838 5838 5840 5841
5778 5777 5776 5777 5778 5779 5780 5781 5784 5786 5786 5787 5789 5792 5795 5797 5800 5802 5803 5806 5810 5812 5813 5815 5818 5821 5823 5823 5824 5826 5828 5829 5829 5829 5830 5830 5831 5832 5834 5835 5837 5838
5772 5771 5771 5771 5771 5772 5774 5776 5778 5780 5781 5781 5783 5786 5790 5792 5794 5795 5798 5802 5805 5807 5809 5811 5814 5817 5819 5819 5820 5822 5823 5825 5826 5826 5826 5827 5827 5828 5830 5832 5834 5835
5767 5766 5766 5765 5764 5765 5767 5769 5772 5774 5775 5776 5777 5780 5783 5786 5788 5789 5792 5796 5800 5802 5804 5807 5810 5812 5815 5816 5816 5816 5817 5819 5821 5822 5822 5823 5823 5824 5826 5828 5829 5830
5761 5760 5760 5759 5758 5759 5761 5763 5765 5768 5770 5771 5772 5774 5776 5779 5782 5785 5787 5790 5793 5796 5799 5803 5805 5807 5810 5812 5811 5812 5812 5813 5815 5817 5818 5819 5820 5821 5822 5824 5825 5825
5755 5754 5753 5753 5752 5753 5755 5758 5760 5763 5765 5767 5768 5769 5770 5772 5776 5780 5783 5786 5788 5790 5794 5798 5800 5801 5804 5806 5807 5807 5808 5808 5810 5812 5814 5815 5816 5818 5819 5820 5821 5821
5751 5749 5748 5748 5747 5747 5750 5752 5755 5757 5760 5762 5763 5765 5767 5768 5771 5774 5778 5781 5784 5785 5788 5791 5794 5796 5798 5800 5802 5803 5803 5804 5806 5808 5810 5811 5813 5813 5815 5816 5817 5816
5746 5744 5744 5744 5743 5743 5744 5746 5749 5752 5755 5757 5758 5761 5764 5766 5767 5768 5771 5776 5780 5781 5782 5784 5787 5790 5793 5795 5796 5797 5798 5799 5801 5804 5805 5806 5807 5809 5810 5812 5813 5813
5741 5740 5740 5740 5740 5739 5740 5742 5744 5747 5749 5752 5754 5756 5760 5762 5763 5764 5766 5770 5774 5777 5778 5780 5781 5784 5787 5789 5790 5792 5793 5794 5797 5800 5801 5801 5803 5804 5805 5806 5808 5808
5737 5737 5736 5736 5737 5737 5737 5738 5740 5743 5745 5747 5750 5752 5755 5758 5759 5760 5762 5764 5768 5772 5775 5777 5777 5779 5781 5783 5785 5787 5788 5790 5793 5796 5795 5795 5798 5800 5800 5802 5804 5804